Location: Wald
(31.7579°N, 86.6655°W)
Time: 11:46:57
(UTC+00:00)

NOSS 3-4 (A) - Pass Details

Date: 14 July 2020
Orbit: 892 x 1320 km, 63.4° (Epoch: 12 July)

Event Time Altitude Azimuth Distance (km) Brightness Sun altitude
Rises 03:03:52 0° 334° (NNW) 3,908 7.9 -23.1°
Reaches altitude 10° 03:06:29 10° 338° (NNW) 3,008 7.0 -23.4°
Maximum altitude 03:13:40 62° 58° (ENE) 1,349 4.1 -24.5°
Enters shadow 03:16:05 44° 116° (ESE) 1,652 4.2 -24.8°
